CZ-6A DEB

Satellite information

Favourite Embed

Satellite Type and Status

DEBRISIN ORBIT

Key statistics

Satellite CZ-6A DEB at a glance.

Uptime

441

Days in orbit

Revolutions

≈ 14.5

Per day

Orbit

LEO

Low Earth Orbit

Inclination

89.1

Latest

Satellite identification and parameters

Extended collection of information and parameters for CZ-6A DEB.

Object identification

Identified? True

Debris? True

Object name: CZ-6A DEB

International designator: 2024-140NN

Object number (NORAD): 61096

Object ID (CCSDS): 61096

Country: PEOPLES REPUBLIC OF CHINA (PRC)

Current information (Y/N): Y

RCS size: SMALL

Orbital parameters

Period: 98.97 minutes

Inclination: 89.0534 deg

SMA: 7087.546 km

Apoapsis: 781.414 km

Periapsis: 637.408 km

RAAN: 302.1624 deg

Eccentricy: 0.01015906

Argument of periapsis: 16.1689 deg

Mean anomaly: 344.2721 deg

Mean motion: 14.54986333 rev/day

Mean motion (dot): 0.00008231 rev/day2

B* drag term: 0.0017802677 1/REarth

Two-line elements (TLE)

Creation date: Oct. 20, 2025, 2:10 a.m.

Reference frame: TEME

Reference center: EARTH

Epoch: Oct. 19, 2025, 11:23 p.m. UTC

TLE line 0: 0 CZ-6A DEB

TLE line 1: 1 61096U 24140NN 25292.97499392 .00008231 00000-0 17803-2 0 9990

TLE line 2: 2 61096 89.0534 302.1624 0101591 16.1689 344.2721 14.54986333 60611

Live tracking on map

Real-time ground track for satellite CZ-6A DEB.

In-orbit conjunctions

A list of the most updated potential collisions computed for object CZ-6A DEB.

Target Orbit TCA Probability of collision Miss distance Type
IRIDIUM 33 DEB LEO 2025-09-29 17:46:10 0.0004170922 78.0 (m) DEBRIS
DMSP 5D-2 F11 DEB SSO 2025-03-03 04:22:04 0.0008362486 499.0 (m) DEBRIS
COSMOS 2251 DEB LEO 2025-02-13 05:40:51 0.0002240968 966.0 (m) DEBRIS
CZ-2D DEB SSO 2025-01-27 22:13:24 0.002579132 93.0 (m) DEBRIS
HEALTHSAT 1 SSO 2025-01-21 10:56:56 0.001887945 179.0 (m) PAYLOAD

Associated space launch

18 Low Earth Orbit communication satellites with Ku, Q and V band payloads for the G60 constellation operated by Shanghai Spacecom Satellite Technology (SSST) with funding backed by the Shanghai local government. Initial constellation will consist of 1296 satellites by 2027 with long term plans to expand it to 12000 satellites.

CZ-6A DEB was lifted into orbit during the mission ‘Long March 6A | G60 Polar Group 01’, on board a Long March 6A space rocket.

The launch took place on Aug. 6, 2024, 6:42 a.m. from Launch Complex 9A.

For more information about the launch, click the button.

Launch to space Long March 6A | G60 Polar Group 01
Long March 6A | G60 Polar Group 01

Agency: N/A

Status: Launch Successful

Launch date: Aug. 6, 2024, 6:42 a.m. UTC

Rocket: Long March 6A

Launch pad: Launch Complex 9A

Location: Taiyuan Satellite Launch Center, People's Republic of China

...

Latest news about this satellite

News about space launch
Brightness of first Chinese broadband constellation satellites alarms astronomers

The first satellites of a Chinese broadband constellation are significantly brighter than those of Western systems, posing a new challenge for astronomers.

News about space launch
Chinese rocket stage breaks up into cloud of more than 700 pieces of space debris

HELSINKI — A Chinese Long March 6A rocket’s upper stage has fragmented into a cloud of over 700 pieces of space debris, adding to concerns about long-term orbital safety. China […]

News about space launch
China's Thousand Sails Megaconstellation Kicks Off with Dangerous Debris Field

China's Thousand Sails Megaconstellation Kicks Off with Dangerous Debris Field


Newsletter sign-up

Weekly statistics, charts and insights to help you stay on top of the space industry.